Regional Weather Roundup
Issued by NWS

Home | Current Version | Previous Version | Graphics & Text | Print | Product List | Glossary Off
Versions: 1 2 3 4 5 6 7 8 9 10 11 12 13 14 15 16 17 18 19 20 21 22 23 24 25 26 27 28 29 30 31 32 33 34 35 36 37 38 39 40 41 42 43 44 45 46 47 48 49 50

000
ASUS43 KMKX 301100
RWRWI

WISCONSIN REGIONAL WEATHER ROUNDUP
NATIONAL WEATHER SERVICE MILWAUKEE/SULLIVAN WI
600 AM CDT MON MAY 30 2016

NOTE: "FAIR" INDICATES FEW OR NO CLOUDS BELOW 12,000 FEET WITH NO
SIGNIFICANT WEATHER AND/OR OBSTRUCTIONS TO VISIBILITY.

WIZ001-002-006>008-014>016-023>028-301200-
NORTHWEST WISCONSIN

CITY           SKY/WX    TMP DP  RH WIND       PRES   REMARKS
SUPERIOR ARPT  CLEAR     50  49  99 SW5       29.97R
ASHLAND        CLEAR     52  49  89 SW3       29.97R
HAYWARD        CLEAR     46  44  93 CALM      30.01R
SIREN          CLEAR     46  45  93 CALM      30.00R
CUMBERLAND     FOG       50  50 100 CALM      30.01R VSB 1/4
RICE LAKE      CLEAR     53  51  95 CALM      30.03R FOG
CHETEK         FOG       49  49 100 CALM      30.01R VSB 1/4
LADYSMITH      CLEAR     50  49  97 CALM      30.01R
EAU CLAIRE     NOT AVBL
MENOMONIE      CLEAR     53  51  92 CALM      30.02R
NEW RICHMOND   CLEAR     55  55 100 S3        30.01R FOG
OSCEOLA        FOG       51  51 100 CALM      30.03S VSB<1/4
$$

WIZ003>005-009-010-017-018-301200-
NORTH CENTRAL WISCONSIN

CITY           SKY/WX    TMP DP  RH WIND       PRES   REMARKS
MANITOWISH WTR NOT AVBL
ARBOR VITAE    CLEAR     52  51  95 CALM      29.98S
WOODRUFF       CLEAR     52  51  95 CALM      29.98S
RHINELANDER    CLEAR     50  49  96 W7        29.99S
EAGLE RIVER      N/A     50  50 100 SW5       29.97R FOG
LAND O LAKES   CLEAR     53  53 100 W3        29.97S
PHILLIPS       CLEAR     47  47  99 CALM      29.99R
TOMAHAWK       CLEAR     48  47  98 CALM      30.00R
MEDFORD        FOG       52  52 100 CALM      30.00S VSB 1/2
MERRILL        FOG       47  47 100 CALM      30.00R VSB 3/4
$$

WIZ029-030-035-036-043>047-301200-
CENTRAL WISCONSIN

CITY           SKY/WX    TMP DP  RH WIND       PRES   REMARKS
WAUSAU         CLEAR     58  55  90 NW3       29.98R
MOSINEE        CLEAR     55  55 100 W5        30.01R
MARSHFIELD     CLEAR     57  55  93 W6        30.01R
STEVENS POINT  FOG       49  49 100 CALM      30.01R VSB 1/4
WAUPACA        CLEAR     56  56  99 CALM      29.99R
WAUTOMA        CLEAR    N/A N/A N/A W3        30.01R
WISC RAPIDS    CLEAR     56  54  93 CALM      30.01R
CAMP DOUGLAS   FOG       52  52 100 W2        30.01R VSB 1/2
$$

WIZ011>013-019>022-031-037>040-048>050-301200-
NORTHEAST WISCONSIN

CITY           SKY/WX    TMP DP  RH WIND       PRES   REMARKS
ANTIGO         FOG       49  49 100 CALM      30.00R VSB 1/4
SHAWANO        CLEAR     57  55  92 W5        29.98R
OCONTO         CLEAR    N/A N/A N/A CALM      29.96R
STURGEON BAY   NOT AVBL
GREEN BAY      CLEAR     58  56  93 CALM      29.97R
MANITOWOC      NOT AVBL
APPLETON       PTCLDY    57  57 100 W7        29.97R
CLINTONVILLE   CLEAR     55  54  94 CALM      29.98R
OSHKOSH        CLEAR     61  57  87 W5        29.98S
$$

WIZ032>034-041-042-053>061-301200-
SOUTHWEST WISCONSIN

CITY           SKY/WX    TMP DP  RH WIND       PRES   REMARKS
LA CROSSE      CLEAR     59  57  93 S7        30.01R
SPARTA         CLEAR     49  49  99 CALM      30.03R
VIROQUA        CLEAR     59  58  96 CALM      30.03R
BOSCOBEL       FOG       58  57  97 S3        30.03R VSB<1/4
PRAIRIE DU CHI CLEAR     56  54  94 CALM      30.02R
PLATTEVILLE    CLEAR     60  58  96 W3        30.03R
$$

WIZ056-057-062-063-064-067-068-301200-
SOUTH CENTRAL WISCONSIN

CITY           SKY/WX    TMP DP  RH WIND       PRES   REMARKS
REEDSBURG      CLEAR     55  55 100 CALM      30.01R
BARABOO/DELLS  CLEAR     57  55  92 CALM      30.02R
LONE ROCK      NOT AVBL
MINERAL POINT  CLEAR     59  57  94 CALM      30.03R
MADISON        PTCLDY    57  56  96 CALM      30.01R FOG
MIDDLETON      CLEAR     57  57 100 CALM      30.02R
WATERTOWN      CLEAR     54  54 100 CALM      30.01R
MONROE         PTCLDY    64  55  72 W7        30.01S
JANESVILLE     CLEAR     59  55  88 CALM      30.01R
$$

WIZ051-052-058>065-066-070>072-301200-
SOUTHEAST WISCONSIN

CITY           SKY/WX    TMP DP  RH WIND       PRES   REMARKS
MILWAUKEE      CLEAR     64  57  78 W5        30.00R
WAUKESHA       CLEAR     55  55 100 CALM      30.02R
MILWAUKEE/TIMM CLEAR     61  54  77 CALM      30.01R
RACINE         CLEAR     63  57  81 W5        30.02R
BURLINGTON     CLEAR     56  56  99 CALM      30.01R
KENOSHA        CLEAR     61  57  87 SW6       30.01R
FOND DU LAC    CLEAR     60  58  92 SW3       30.00R
SHEBOYGAN      CLEAR     57  56  96 W5        29.99R
WEST BEND      CLEAR     55  55 100 CALM      30.00R
JUNEAU         CLEAR     56  56  98 S5        30.02R
$$

LSZ147-162-301200-
LAKE SUPERIOR

STATION/POSITION TIME  TEMP    WIND        PRES    WAVE
                       AIR SEA DIR/SP/G            HT/PER
                 (UTC) (F)     (DEG/KT/KT) (MB)    (FT/S)
W MID LAKE BUOY  0950   43 38  250/ 10/ 12 1012.6S   1
DEVILS ISLAND    1000   49     230/ 14/ 16 1013.6R
SAXON HARBOR     1000   55     200/  8/ 10 1013.5
$$

LMZ867-665-643>646-301200-
LAKE MICHIGAN

STATION/POSITION TIME  TEMP    WIND        PRES    WAVE
                       AIR SEA DIR/SP/G            HT/PER
                 (UTC) (F)     (DEG/KT/KT) (MB)    (FT/S)
CHAMBERS ISLAND  1000   59     230/  4/  7 1014.2R
N MID LAKE BUOY  0950   52 47  240/  6/  6 1013.5R   1/ 4
NORTHPORT PIER   1000   59     250/  3/  5 1013.9R
KEWAUNEE LAKESHO 1000   60     300/  5/  6 1013.9R
SHEBOYGAN LAKESH 1000   62     260/  7/  8 1014.8R
PORT WASHINGTON  1000   64     290/  5/  8 1015.6
S MID LAKE BUOY  0950   58 51  240/  8/  8 1015.2R   0
KENOSHA   LAKESH 1000   65     260/  8/ 10 1015.6R
$$

TC  - TEMPERATURE IN CELSIUS
VSB - VISIBILITY IN STATUTE MILES
WCI - WIND CHILL INDEX
HX  - HEAT INDEX




USA.gov is the U.S. government's official web portal to all federal, state and local government web resources and services.